OR Tambo International Airport, South Africa

8:10 PM SAST on February 27, 2017 (GMT +0200)
Benoni Farrarmere | | Change Station

Elev 5486 ft 26.15 °S, 28.30 °E | Updated 29 seconds ago

Clear
Clear
64.7 °F
Feels Like 64.7 °F
N
1.0
Wind Variable Wind from NNW
Gusts 4.0 mph

Today
High -- | Low -- °F
--% Chance of Precip.
Yesterday
High -- | Low -- °F
Precip. -- in
Pressure 30.21 in
Visibility -9999.0 miles
Clouds
Dew Point 61 °F
Humidity 86%
Rainfall 0.00 in
Snow Depth Not available.
5:59 AM 6:39 PM
New Moon, 2% visible
METAR FAOR 271800Z VRB07KT CAVOK 21/15 Q1023 NOSIG
Pressure 30.21 in
Visibility -9999.0 miles
Clouds
Dew Point 61 °F
Humidity 86%
Rainfall 0.00 in
Snow Depth Not available.
5:59 AM 6:39 PM
New Moon, 2% visible
METAR FAOR 271800Z VRB07KT CAVOK 21/15 Q1023 NOSIG

Get Your Daily Forecast Email!

Thanks for signing up!

Be on the lookout for a verification email in your inbox.

You'll start receiving the daily forecast at 8 AM.

×

10-Day Weather Forecast

No radar image for this location.
×

Almanac

Astronomy

Feb. 27, 2017 Rise Set
Actual Time
Civil Twilight
Nautical Twilight
Astronomical Twilight
Moon
Length of Visible Light
Length of Day
Tomorrow will be .
, % of the Moon is Illuminated

Today's Extremes

Country Highs Country Lows

Community

WunderPhotos

Upload Photos

1,962,540 photos uploaded!

WunderBlog® & News

Nearby

Air Quality

  Air Quality AQ Index Pollutant
Not available.

Snow Depth

Station Depth Elevation

Earthquake Activity

City Distance Mag. Time & Date
Minimum magnitude displayed is 2.5.

Coastal Water Temperatures

Place Temperature

Stations

Nearby Weather Stations

Station Location Temp. Windchill Dew Point Humidity Wind Precip. Elev Updated Type